This demonstration page uses our WeatherBlox Daily Observations layout. Learn more.

Left ArrowRight Arrow

36.19886, -115.1175

Hourly Observations for February 20, 2021

Temp ( °F °C ) Dew Point ( °F °C ) Humidity (%) Winds ( mph kmh ) Pressure ( in mb ) Visibility ( mi km ) Precip ( " mm )
12:53 am 00:53 Clear 43 6.1 13 -10.6 29 29 NW 6 9 30.05 1018 10 16 N/A
1:53 am 01:53 Clear 42 5.6 12 -11.1 29 29 NW 8 13 30.04 1017 10 16 N/A
2:53 am 02:53 Clear 41 5 11 -11.7 29 29 WNW 6 9 30.00 1016 10 16 N/A
3:53 am 03:53 Clear 40 4.4 11 -11.7 30 30 NW 3 6 29.98 1015 10 16 N/A
4:53 am 04:53 Clear 39 3.9 12 -11.1 33 33 WNW 5 7 29.96 1015 10 16 N/A
5:53 am 05:53 Clear 38 3.3 11 -11.7 33 33 NW 7 11 29.95 1014 10 16 N/A
6:53 am 06:53 Sunny 38 3.3 12 -11.1 34 34 N N/A 29.90 1013 10 16 N/A
7:53 am 07:53 Sunny 46 7.8 11 -11.7 24 24 NNW 14 22 29.93 1014 10 16 N/A
8:53 am 08:53 Hazy 55 12.8 9 -12.8 16 16 WNW 10 17 29.94 1014 2 3 N/A
9:04 am 09:04 Sunny 56 13.3 9 -12.8 15 15 NW 8 13 29.87 1011 10 16 N/A
9:53 am 09:53 Sunny 58 14.4 11 -11.7 15 15 NNE 8 13 29.93 1014 10 16 N/A
10:53 am 10:53 Sunny 61 16.1 11 -11.7 14 14 VRB 5 7 29.93 1014 10 16 N/A
11:53 am 11:53 Cloudy 62 16.7 16 -8.9 17 17 NNW 20 31 29.93 1014 10 16 N/A
12:53 pm 12:53 Sunny with Light Rain 59 15 21 -6.1 23 23 NW 28 44 29.97 1015 10 16 0.00 0.00
1:53 pm 13:53 Sunny with Light Rain 61 16.1 17 -8.3 18 18 NW 32 52 29.98 1015 10 16 0.00 0.00
2:53 pm 14:53 Sunny 61 16.1 8 -13.3 12 12 WNW 29 46 30.01 1016 10 16 0.00 0.00
3:53 pm 15:53 Sunny with Light Rain 60 15.6 14 -10 16 16 NW 24 39 30.04 1017 10 16 0.00 0.00
4:53 pm 16:53 Sunny 57 13.9 22 -5.6 26 26 NW 21 33 30.09 1019 10 16 0.00 0.00
5:53 pm 17:53 Clear 55 12.8 22 -5.6 28 28 NW 12 19 30.12 1020 10 16 N/A
6:53 pm 18:53 Clear 54 12.2 21 -6.1 28 28 NNW 13 20 30.16 1021 10 16 N/A
7:53 pm 19:53 Clear 54 12.2 19 -7.2 25 25 NW 13 20 30.17 1022 10 16 N/A
8:53 pm 20:53 Clear 54 12.2 18 -7.8 24 24 NW 13 20 30.19 1023 10 16 N/A
9:53 pm 21:53 Clear 53 11.7 18 -7.8 25 25 NNW 14 22 30.22 1023 10 16 N/A
10:53 pm 22:53 Clear 53 11.7 16 -8.9 23 23 NW 16 26 30.24 1024 10 16 N/A
11:53 pm 23:53 Clear 51 10.6 17 -8.3 26 26 NNW 15 24 30.26 1025 10 16 N/A

Powered by AerisWeather